DW2762 Weather Reports


time (UTC)temp
C
wind
direction
speed
KPH
gust
KPH
rain 1hr
cm
rain 24hr
cm
rain mn
cm
humidity
%
barometer
mb
20260507213109 14 320 9.7 16.1 0.00 0.00 0.00 66 1015.3
20260507211610 15 309 8.0 19.3 0.00 0.00 0.00 65 1015.1
20260507210109 15 329 9.7 17.7 0.00 0.00 0.00 64 1015.0
20260507203110 14 324 1.6 8.0 0.00 0.00 0.00 67 1014.8
20260507201609 14 315 0.0 3.2 0.00 0.00 0.00 69 1014.5
20260507194610 15 238 0.0 0.0 0.00 0.00 0.00 69 1014.3
20260507193108 15 238 0.0 0.0 0.00 0.00 0.00 68 1014.2
20260507191608 15 235 0.0 1.6 0.00 0.00 0.00 68 1014.2
20260507190108 15 236 1.6 6.4 0.00 0.00 0.00 65 1014.0
20260507184608 15 238 0.0 0.0 0.00 0.00 0.00 65 1013.6
20260507183108 15 238 1.6 6.4 0.00 0.00 0.00 63 1013.5
20260507181609 16 206 3.2 6.4 0.00 0.00 0.00 61 1013.3
20260507180108 16 205 3.2 4.8 0.00 0.00 0.00 59 1013.0
20260507174608 17 182 3.2 4.8 0.00 0.00 0.00 56 1013.0
20260507173113 18 159 4.8 11.3 0.00 0.00 0.00 54 1012.9
20260507171612 18 286 3.2 4.8 0.00 0.00 0.00 53 1012.6
20260507164612 19 290 4.8 9.7 0.00 0.00 0.00 51 1012.2
20260507163113 20 269 4.8 11.3 0.00 0.00 0.00 49 1012.1
20260507161612 20 288 6.4 14.5 0.00 0.00 0.00 47 1012.1
20260507160112 20 281 1.6 6.4 0.00 0.00 0.00 47 1011.9
20260507154612 20 333 3.2 8.0 0.00 0.00 0.00 50 1011.9
20260507151612 20 284 11.3 17.7 0.00 0.00 0.00 49 1012.0
20260507143111 20 265 6.4 11.3 0.00 0.00 0.00 48 1011.7
20260507141611 20 300 3.2 14.5 0.00 0.00 0.00 46 1011.8
20260507140111 21 286 6.4 11.3 0.00 0.00 0.00 45 1011.9
20260507134611 21 253 6.4 12.9 0.00 0.00 0.00 44 1012.0
20260507131610 20 208 9.7 17.7 0.00 0.00 0.00 46 1012.3
20260507124610 21 215 6.4 22.5 0.00 0.00 0.00 45 1012.3
20260507123112 20 198 9.7 19.3 0.00 0.00 0.00 47 1012.3
20260507121610 21 272 12.9 20.9 0.00 0.00 0.00 48 1012.3
20260507120111 20 180 8.0 14.5 0.00 0.00 0.00 53 1012.4
20260507114610 19 192 9.7 14.5 0.00 0.00 0.00 54 1012.5
20260507113109 19 184 8.0 19.3 0.00 0.00 0.00 53 1012.5
20260507110109 19 240 6.4 12.9 0.00 0.00 0.00 53 1012.7
20260507104609 18 246 4.8 14.5 0.00 0.00 0.00 58 1012.6
20260507101609 18 183 8.0 16.1 0.00 0.00 0.00 59 1012.7
20260507100109 18 124 3.2 6.4 0.00 0.00 0.00 63 1012.5
20260507094609 17 156 9.7 16.1 0.00 0.00 0.00 63 1012.6
20260507093109 16 217 3.2 11.3 0.00 0.00 0.00 66 1012.7
20260507091609 16 182 6.4 12.9 0.00 0.00 0.00 65 1012.5
20260507084608 17 233 9.7 16.1 0.00 0.00 0.00 66 1012.2
20260507083108 16 221 4.8 14.5 0.00 0.00 0.00 69 1012.1
20260507080108 16 237 9.7 17.7 0.00 0.00 0.00 70 1011.8
20260507074608 15 194 9.7 20.9 0.00 0.00 0.00 70 1011.8
20260507073108 16 252 4.8 14.5 0.00 0.00 0.00 70 1011.7
20260507071608 15 232 9.7 14.5 0.00 0.00 0.00 75 1011.8
20260507070113 14 266 6.4 17.7 0.00 0.00 0.00 75 1011.6
20260507064613 15 227 8.0 14.5 0.00 0.00 0.00 75 1011.5
20260507063113 14 233 6.4 12.9 0.00 0.00 0.00 78 1011.4
20260507061612 13 209 3.2 14.5 0.00 0.00 0.00 79 1011.2
20260507060112 13 238 4.8 12.9 0.00 0.00 0.00 79 1011.0
20260507054612 13 290 3.2 14.5 0.00 0.00 0.00 81 1010.9
20260507053112 13 317 4.8 11.3 0.00 0.00 0.00 82 1010.8
20260507050112 13 241 1.6 12.9 0.00 0.00 0.00 84 1010.5
20260507043111 12 260 4.8 11.3 0.00 0.00 0.00 86 1010.1
20260507041612 12 273 1.6 11.3 0.00 0.00 0.00 88 1009.9
20260507040111 12 230 1.6 11.3 0.00 0.00 0.00 88 1009.8
20260507034611 12 242 3.2 6.4 0.00 0.00 0.00 89 1009.4
20260507033111 12 244 4.8 9.7 0.00 0.00 0.00 89 1009.4
20260507031611 11 267 0.0 0.0 0.00 0.00 0.00 90 1009.3
20260507030111 11 268 0.0 1.6 0.00 0.00 0.00 89 1009.1
20260507024611 11 268 0.0 1.6 0.00 0.00 0.00 89 1009.0
20260507023110 11 267 1.6 3.2 0.00 0.00 0.00 87 1008.9
20260507021611 12 268 0.0 3.2 0.00 0.00 0.00 86 1008.8
20260507020110 12 268 0.0 1.6 0.00 0.00 0.00 85 1008.9
20260507014610 12 268 1.6 4.8 0.00 0.00 0.00 84 1008.6
20260507013112 13 250 1.6 4.8 0.00 0.00 0.00 84 1008.6
20260507011610 13 244 4.8 9.7 0.00 0.00 0.00 83 1008.3
20260507010110 13 266 3.2 9.7 0.00 0.00 0.00 82 1008.0
20260507004610 13 245 6.4 12.9 0.00 0.00 0.00 82 1007.9
20260507003110 13 217 4.8 12.9 0.00 0.00 0.00 82 1007.7
20260507001610 13 274 3.2 9.7 0.00 0.00 0.00 81 1007.6
20260507000110 14 288 4.8 12.9 0.00 0.00 0.00 81 1007.2
20260506234610 14 263 6.4 16.1 0.00 0.00 0.00 81 1007.3
20260506233111 14 242 8.0 14.5 0.00 0.00 0.00 81 1007.0
20260506231609 14 217 3.2 6.4 0.00 0.00 0.00 79 1006.7
20260506230109 15 274 3.2 6.4 0.00 0.00 0.00 78 1006.3
20260506224611 14 254 6.4 11.3 0.00 0.00 0.00 77 1006.3
20260506223110 15 175 1.6 4.8 0.00 0.00 0.00 75 1006.2
20260506221609 15 154 0.0 3.2 0.00 0.00 0.00 74 1005.8
20260506220110 15 151 0.0 1.6 0.00 0.00 0.00 74 1005.8